Overview Statistics Trail Chart Weather Telemetry Raw packets
 

This is the latest recevied weather packets stored in our database for station/object N5ATR. If no packets are shown the sender has not sent any weather packets the latest 10 day(s).

<< 92 93 94 95 96 97 98 >>
Time Temp. Humidity Pressure Rain* Wind** Luminosity Snow
1788008640 18.89° C 50% 1025.8 hPa 0 mm - 17 W/m² -
1788008337 18.33° C 51% 1025.6 hPa 0 mm - 14 W/m² -
1788008034 17.22° C 53% 1026 hPa 0 mm - 11 W/m² -
1788007734 17.22° C 54% 1025.6 hPa 0 mm - 8 W/m² -
1788007430 17.78° C 53% 1025.6 hPa 0 mm - 5 W/m² -
1788007129 17.78° C 52% 1025.5 hPa 0 mm - 3 W/m² -
1788006828 18.33° C 51% 1025.8 hPa 0 mm - 1 W/m² -
1788006523 18.33° C 51% 1025.2 hPa 0 mm - 1 W/m² -
1788006218 18.33° C 50% 1025.5 hPa 0 mm - 0 W/m² -
1788005916 18.33° C 51% 1025.5 hPa 0 mm - 0 W/m² -
1788005612 17.78° C 52% 1025.6 hPa 0 mm - 0 W/m² -
1788005311 17.22° C 53% 1025.6 hPa 0 mm - 0 W/m² -
1788005010 17.78° C 53% 1025.5 hPa 0 mm - 0 W/m² -
1788004708 17.78° C 53% 1025.4 hPa 0 mm - 0 W/m² -
1788004404 17.78° C 52% 1025.1 hPa 0 mm - 0 W/m² -
1788004098 18.33° C 51% 1025.2 hPa 0 mm - 0 W/m² -
1788003796 18.89° C 50% 1025.4 hPa 0 mm - 0 W/m² -
1788003492 18.89° C 49% 1025.2 hPa 0 mm - 0 W/m² -
1788003186 18.89° C 49% 1025.2 hPa 0 mm - 0 W/m² -
1788002885 18.33° C 50% 1025.5 hPa 0 mm - 0 W/m² -
1788002582 18.89° C 50% 1025.7 hPa 0 mm - 0 W/m² -
1788002277 18.89° C 49% 1025.5 hPa 0 mm - 0 W/m² -
1788001976 18.89° C 49% 1025.6 hPa 0 mm - 0 W/m² -
1788001672 18.33° C 50% 1025.5 hPa 0 mm - 0 W/m² -
1788001371 18.89° C 49% 1025.5 hPa 0 mm - 0 W/m² -

* Rain latest hour (hover to see other rain measurements)
** Current wind speed in m/s (hover to see current wind gust speed)